{"data":{"norad_id":66881,"epoch":"2026-09-20T13:03:50.971680Z","epoch_age_seconds":80534,"freshness":"FRESH","line1":"1 66881U 25283D   26263.54433995  .00010016  00000+0  30724-3 0  9996","line2":"2 66881  53.1585 197.2157 0001833  89.5050 270.6163 15.34395323 45701","mean_motion":15.34395323,"eccentricity":0.0001833,"inclination_deg":53.1585,"raan_deg":197.2157,"arg_perigee_deg":89.505,"mean_anomaly_deg":270.6163,"bstar":0.00030724,"rev_number":4570,"period_min":93.848044139274,"perigee_km":461.46321270795,"apogee_km":463.97106983614,"semimajor_km":6840.854141272,"source":"CELESTRAK","updated_at":"2026-09-21T09:00:36.032535Z"}}